[[{"header":{"parameterUnit":"m.s-1","parameterCategory":1,"la1":30.2992,"la2":30.254,"lo1":-89.0895,"lo2":-89.0443,"dy":0.0025,"dx":0.0025,"nx":19,"ny":19,"refTime":"2026-04-22T09:00:00:Z","depth":0,"parameterNumber":2,"parameterNumberName":"U-component_of_WINDS"},"data":[0,0,0,-4.1628,-4.163,-4.1737,-4.1737,-4.1877,-4.1878,0,0,0,0,0,0,0,0,0,0,0,-4.1601,-4.1602,-4.1628,-4.1631,-4.1737,-4.1737,-4.1877,-4.1878,0,0,0,0,0,0,0,0,0,0,0,-4.16,-4.1602,-4.1603,-4.1631,-4.1736,-4.1737,-4.1876,-4.1794,0,0,0,0,0,0,0,0,0,0,-4.169,-4.167,-4.1601,-4.1603,-4.1632,-4.1736,-4.1737,-4.179,-4.1799,-4.1831,0,-4.1862,0,-4.1873,-4.1888,-4.1889,0,0,0,-4.1627,-4.1662,-4.1687,-4.1603,-4.1633,-4.1736,-4.1688,-4.1795,-4.1806,-4.1843,-4.1864,-4.1869,-4.1875,-4.1889,-4.189,-4.2089,-4.209,0,0,-4.1621,-4.1621,-4.168,-4.1694,-4.168,-4.1684,-4.1691,-4.1802,-4.1823,-4.1865,-4.1872,-4.1877,-4.189,-4.1891,-4.2088,-4.209,0,0,0,-4.1607,-4.1618,-4.164,-4.1689,-4.1708,-4.1687,-4.1695,-4.1818,-4.1826,-4.1874,-4.1879,-4.1891,-4.1893,-4.2087,-4.2089,-4.2143,0,0,0,-4.1603,-4.1609,-4.1637,-4.1639,-4.1706,-4.1765,-4.171,-4.1818,-4.1831,-4.1878,-4.1891,-4.1894,-4.2086,-4.2088,-4.2139,-4.2167,0,0,0,-4.1592,-4.1608,-4.1625,-4.1639,-4.1685,-4.1763,-4.1776,-4.1821,-4.1834,-4.1889,-4.1894,-4.2085,-4.2088,-4.2135,-4.2161,-4.2219,0,0,0,-4.158,-4.1671,-4.1626,-4.1729,-4.1684,-4.1797,-4.1776,-4.186,-4.1913,-4.1892,-4.2086,-4.2089,-4.2134,-4.2158,-4.2215,-4.2266,-4.2288,0,0,-4.1695,-4.1685,-4.1746,-4.1709,-4.183,-4.1781,-4.191,-4.1958,-4.1962,-4.2046,-4.2051,-4.214,-4.2161,-4.2218,-4.2415,-4.2432,0,0,0,-4.1782,-4.1826,-4.1858,-4.191,-4.1951,-4.1987,-4.2015,-4.2033,-4.2105,-4.2006,-4.2178,-4.219,-4.2224,-4.2248,-4.2262,-4.229,-4.2101,-4.21,-4.21,-4.1942,-4.1945,-4.2045,-4.2061,-4.2112,-4.2142,-4.2182,-4.2211,-4.2198,-4.2239,-4.2262,-4.2382,-4.241,-4.2421,-4.245,-4.2292,-4.2292,-4.2292,-4.2292,-4.2108,-4.2169,-4.2152,-4.2242,-4.2244,-4.232,-4.2353,-4.2341,-4.2411,-4.2364,-4.2393,-4.2339,-4.244,-4.2465,-4.2296,-4.2296,-4.2295,-4.2295,-4.2294,-4.221,-4.224,-4.2262,-4.2339,-4.2397,-4.241,-4.2478,-4.2478,-4.2478,-4.2507,-4.2531,-4.253,-4.2527,-4.2519,-4.252,-4.252,-4.2521,-4.2521,-4.2521,-4.2306,-4.233,-4.2388,-4.2441,-4.2475,-4.2519,-4.2552,-4.2584,-4.262,-4.2614,-4.2614,-4.2595,-4.2451,-4.2413,-4.2528,-4.2526,-4.2526,-4.2525,-4.2525,-4.2468,-4.2432,-4.2522,-4.2556,-4.2618,-4.2675,-4.2676,-4.2742,-4.277,-4.2803,-4.278,-4.2674,-4.2663,-4.2651,-4.2619,-4.278,-4.278,-4.278,-4.278,-4.2553,-4.2549,-4.264,-4.2695,-4.2748,-4.2758,-4.2858,-4.2885,-4.2907,-4.2923,-4.2901,-4.286,-4.2848,-4.2844,-4.2828,-4.2798,-4.3001,-4.3001,-4.3002,-4.2651,-4.2653,-4.2738,-4.2761,-4.2809,-4.285,-4.2944,-4.3006,-4.3023,-4.3011,-4.2936,-4.2927,-4.2861,-4.284,-4.2821,-4.2797,-4.2742,0,0]},{"header":{"parameterUnit":"m.s-1","parameterCategory":1,"la1":30.2992,"la2":30.254,"lo1":-89.0895,"lo2":-89.0443,"dy":0.0025,"dx":0.0025,"nx":19,"ny":19,"refTime":"2026-04-22T09:00:00:Z","depth":0,"parameterNumber":3,"parameterNumberName":"V-component_of_WINDS"},"data":[0,0,0,4.0951,4.0952,4.102,4.102,4.1114,4.1115,0,0,0,0,0,0,0,0,0,0,0,4.0937,4.0938,4.095,4.0952,4.102,4.102,4.1114,4.1115,0,0,0,0,0,0,0,0,0,0,0,4.0936,4.0937,4.0938,4.0953,4.102,4.102,4.1114,4.106,0,0,0,0,0,0,0,0,0,0,4.0992,4.0986,4.0937,4.0939,4.0953,4.102,4.102,4.1057,4.1063,4.1087,0,4.1112,0,4.1115,4.1122,4.1122,0,0,0,4.0947,4.0981,4.0994,4.0939,4.0954,4.102,4.0988,4.106,4.1067,4.1096,4.1113,4.1117,4.1117,4.1123,4.1123,4.1285,4.1286,0,0,4.0943,4.0952,4.0989,4.0999,4.0991,4.0986,4.099,4.1064,4.1084,4.1114,4.1119,4.1119,4.1123,4.1124,4.1284,4.1285,0,0,0,4.0936,4.0949,4.096,4.0995,4.1007,4.0988,4.0993,4.108,4.1083,4.112,4.112,4.1124,4.1125,4.1283,4.1284,4.1341,0,0,0,4.0934,4.0945,4.0959,4.0965,4.1006,4.1045,4.1007,4.1078,4.1086,4.1119,4.1124,4.1126,4.1282,4.1284,4.1337,4.1366,0,0,0,4.093,4.0945,4.0957,4.0965,4.0995,4.1043,4.1051,4.108,4.1087,4.1123,4.1127,4.1281,4.1283,4.1334,4.136,4.141,0,0,0,4.0928,4.1006,4.0958,4.1045,4.0994,4.108,4.105,4.1113,4.1151,4.1125,4.1282,4.1284,4.1333,4.1356,4.1406,4.1451,4.1472,0,0,4.103,4.1018,4.1069,4.1028,4.1124,4.1068,4.1172,4.1198,4.1193,4.1254,4.1258,4.1339,4.136,4.1409,4.1588,4.1604,0,0,0,4.1104,4.114,4.1164,4.1201,4.1225,4.1246,4.1256,4.1266,4.1317,4.1227,4.1371,4.1383,4.1412,4.1433,4.1447,4.147,4.1295,4.1295,4.1295,4.1259,4.125,4.1333,4.1333,4.1369,4.138,4.1408,4.1422,4.1402,4.1436,4.1453,4.1563,4.1588,4.1599,4.1623,4.1479,4.1479,4.1479,4.1479,4.1406,4.1455,4.1428,4.1498,4.1489,4.1547,4.156,4.1544,4.1595,4.1549,4.1574,4.1522,4.1617,4.1637,4.1483,4.1483,4.1482,4.1482,4.1481,4.1504,4.1526,4.1539,4.1592,4.1635,4.1632,4.1683,4.1673,4.1662,4.1687,4.1703,4.1702,4.1698,4.1696,4.1697,4.1697,4.1697,4.1698,4.1698,4.16,4.1612,4.1658,4.1691,4.1713,4.1742,4.1754,4.1776,4.1797,4.1785,4.1785,4.176,4.1629,4.1595,4.1704,4.1703,4.1702,4.1701,4.1701,4.1748,4.1714,4.1784,4.1807,4.1844,4.1886,4.1874,4.1919,4.1935,4.196,4.1932,4.1838,4.1823,4.1812,4.1783,4.1934,4.1934,4.1934,4.1935,4.1829,4.1823,4.1892,4.1929,4.1965,4.1961,4.2039,4.205,4.2055,4.2064,4.2041,4.2004,4.1993,4.1985,4.197,4.1943,4.2131,4.2131,4.2132,4.1919,4.1916,4.1984,4.1991,4.202,4.2044,4.2116,4.2159,4.2158,4.2139,4.207,4.2062,4.2001,4.1983,4.1959,4.1936,4.1886,0,0]}]]